Starlink 32171

operational
NORAD ID: 60332 Int'l Des: 2024-136 Owner: SPXS Country: US Constellation: starlink
LEOCIRCULAR

Starlink 32171について

説明を読み込み中...

リアルタイム位置

3D地球を読み込み中...

次回通過

高度履歴

Altitude vs Time

uPlot chart will show altitude changes over time

軌道要素

1 60332U 24136D 25306.29843544 -.00001140 00000-0 -26373-4 0 9998
2 60332 53.1612 307.1672 0001241 93.5944 266.5199 15.30197326 70161
Epoch: Nov 2, 2025 • Age: 46 hours

現在のステータス

高度 477.4 km
速度 7.63 km/s
衛星直下点 36.32°N, 36.62°W
打ち上げ日 Aug 2, 2024
運用期間 1.2 years
タイプ internet

技術仕様

分類 Payload
質量 730.00 kg
乾燥質量 700.00 kg
総質量 730.00 kg
長さ 0.30 m
直径 4.10 m
スパン 29.00 m
形状 Box + pan
製造者 SPXS
バスタイプ Starlink V2M
フェーズステータス In Orbit
所有者/国 SPXS/US

大規模コンステレーション

Loading constellations...